,,,PA_Meas_PMT16A,,PR_Meas_QMR101_102,,RH_Meas_QMH101,,SR_Meas_QMS101,,TA_Meas_QMH101,,GenWind,,GenWind,
date,time,status,PA,status,PR,status,RH,status,SR,status,TA,status,DirAvg,status,SpdAvg,
2011-05-18, 00:00:05,VALID,1001.51,VALID,0,VALID,85.1237,VALID,0,VALID,25.1455,VALID,152,VALID,0.219922,
2011-05-18, 00:01:05,VALID,1001.47,VALID,0,VALID,85.2229,VALID,0,VALID,25.1455,VALID,152,VALID,0.189844,
2011-05-18, 00:02:05,VALID,1001.46,VALID,0,VALID,85.4289,VALID,0,VALID,25.126,VALID,152,VALID,0,
2011-05-18, 00:03:05,VALID,1001.43,VALID,0,VALID,85.5509,VALID,0,VALID,25.0869,VALID,152,VALID,0.492578,
2011-05-18, 00:04:05,VALID,1001.41,VALID,0,VALID,85.818,VALID,0,VALID,25.0869,VALID,152,VALID,0.500781,
2011-05-18, 00:05:05,VALID,1001.4,VALID,0,VALID,86.0774,VALID,0,VALID,25.0284,VALID,152,VALID,0.824219,
2011-05-18, 00:06:05,VALID,1001.35,VALID,0,VALID,86.3826,VALID,0,VALID,24.9893,VALID,152,VALID,0.767187,
2011-05-18, 00:07:05,VALID,1001.33,VALID,0,VALID,86.6877,VALID,0,VALID,24.9698,VALID,293,VALID,0.615625,
2011-05-18, 00:08:05,VALID,1001.32,VALID,0,VALID,86.9319,VALID,0,VALID,24.9112,VALID,293,VALID,0.364453,
2011-05-18, 00:09:05,VALID,1001.28,VALID,0,VALID,87.1913,VALID,0,VALID,24.9112,VALID,293,VALID,0.289453,
2011-05-18, 00:10:05,VALID,1001.26,VALID,0,VALID,87.4507,VALID,0,VALID,24.8703,VALID,293,VALID,0.591406,
2011-05-18, 00:11:05,VALID,1001.24,VALID,0,VALID,87.7559,VALID,0,VALID,24.8332,VALID,351,VALID,0.836719,
2011-05-18, 00:12:05,VALID,1001.24,VALID,0,VALID,87.8017,VALID,0,VALID,24.7941,VALID,351,VALID,0.657812,
2011-05-18, 00:13:05,VALID,1001.24,VALID,0,VALID,87.8246,VALID,0,VALID,24.7746,VALID,351,VALID,0.486719,
2011-05-18, 00:14:05,VALID,1001.21,VALID,0,VALID,87.8246,VALID,0,VALID,24.7532,VALID,351,VALID,0.238281,
2011-05-18, 00:15:05,VALID,1001.2,VALID,0,VALID,87.6872,VALID,0,VALID,24.7551,VALID,351,VALID,0.318359,
2011-05-18, 00:16:05,VALID,1001.18,VALID,0,VALID,87.8093,VALID,0,VALID,24.7551,VALID,351,VALID,0.503125,
2011-05-18, 00:17:05,VALID,1001.16,VALID,0,VALID,87.8246,VALID,0,VALID,24.716,VALID,351,VALID,0.314453,
2011-05-18, 00:18:05,VALID,1001.13,VALID,0,VALID,87.7788,VALID,0,VALID,24.6965,VALID,351,VALID,0,
2011-05-18, 00:19:05,VALID,1001.1,VALID,0,VALID,87.8627,VALID,0,VALID,24.6965,VALID,351,VALID,0.489453,
2011-05-18, 00:20:05,VALID,1001.06,VALID,0,VALID,88,VALID,0,VALID,24.677,VALID,351,VALID,0.0933594,
2011-05-18, 00:21:05,VALID,1001.05,VALID,0,VALID,88.1297,VALID,0,VALID,24.6575,VALID,351,VALID,0,
2011-05-18, 00:22:05,VALID,1001.07,VALID,0,VALID,88.1221,VALID,0,VALID,24.6184,VALID,136,VALID,0.426562,
2011-05-18, 00:23:05,VALID,1001.07,VALID,0,VALID,88.3281,VALID,0,VALID,24.5794,VALID,136,VALID,0.560156,
2011-05-18, 00:24:05,VALID,1001.08,VALID,0,VALID,88.0458,VALID,0,VALID,24.5794,VALID,127,VALID,0.768359,
2011-05-18, 00:25:05,VALID,1001.04,VALID,0,VALID,87.5499,VALID,0,VALID,24.5989,VALID,116,VALID,0.700391,
2011-05-18, 00:26:05,VALID,1001.05,VALID,0,VALID,87.2371,VALID,0,VALID,24.677,VALID,119,VALID,1.02227,
2011-05-18, 00:27:05,VALID,1001.05,VALID,0,VALID,87.115,VALID,0,VALID,24.716,VALID,127,VALID,0.996094,
2011-05-18, 00:28:05,VALID,1001.06,VALID,0,VALID,87.0692,VALID,0,VALID,24.677,VALID,132,VALID,1.05313,
2011-05-18, 00:29:05,VALID,1001.02,VALID,0,VALID,87.4126,VALID,0,VALID,24.677,VALID,139,VALID,0.850781,
2011-05-18, 00:30:05,VALID,1001.01,VALID,0,VALID,87.6567,VALID,0,VALID,24.6184,VALID,134,VALID,0.909766,
2011-05-18, 00:31:05,VALID,1001,VALID,0,VALID,87.9619,VALID,0,VALID,24.5794,VALID,130,VALID,1.0168,
2011-05-18, 00:32:05,VALID,1000.99,VALID,0,VALID,88.2442,VALID,0,VALID,24.5404,VALID,130,VALID,0.597266,
2011-05-18, 00:33:05,VALID,1001.02,VALID,0,VALID,88.2594,VALID,0,VALID,24.5209,VALID,130,VALID,0.569141,
2011-05-18, 00:34:05,VALID,1000.99,VALID,0,VALID,88.5265,VALID,0,VALID,24.5013,VALID,130,VALID,0.586719,
2011-05-18, 00:35:05,VALID,1000.97,VALID,0,VALID,88.7172,VALID,0,VALID,24.5013,VALID,130,VALID,0.319922,
2011-05-18, 00:36:05,VALID,1000.95,VALID,0,VALID,88.7554,VALID,0,VALID,24.4604,VALID,130,VALID,0.43125,
2011-05-18, 00:37:05,VALID,1000.91,VALID,0,VALID,88.8469,VALID,0,VALID,24.4623,VALID,130,VALID,0.139062,
2011-05-18, 00:38:05,VALID,1000.91,VALID,0,VALID,88.8622,VALID,0,VALID,24.4428,VALID,130,VALID,0,
2011-05-18, 00:39:05,VALID,1000.87,VALID,0,VALID,88.8698,VALID,0,VALID,24.4233,VALID,130,VALID,0,
2011-05-18, 00:40:05,VALID,1000.84,VALID,0,VALID,88.9156,VALID,0,VALID,24.4019,VALID,130,VALID,0,
2011-05-18, 00:41:05,VALID,1000.81,VALID,0,VALID,88.8088,VALID,0,VALID,24.4428,VALID,127,VALID,0.270703,
2011-05-18, 00:42:05,VALID,1000.84,VALID,0,VALID,88.6333,VALID,0,VALID,24.4409,VALID,123,VALID,0.262109,
2011-05-18, 00:43:05,VALID,1000.82,VALID,0,VALID,88.6028,VALID,0,VALID,24.4428,VALID,121,VALID,0.461719,
2011-05-18, 00:44:05,VALID,1000.8,VALID,0,VALID,88.6409,VALID,0,VALID,24.4037,VALID,88,VALID,0.951563,
2011-05-18, 00:45:05,VALID,1000.76,VALID,0,VALID,88.4731,VALID,0,VALID,24.4233,VALID,86,VALID,0.501562,
2011-05-18, 00:46:05,VALID,1000.77,VALID,0,VALID,88.4044,VALID,0,VALID,24.4019,VALID,35,VALID,0.985547,
2011-05-18, 00:47:05,VALID,1000.73,VALID,0,VALID,88.4654,VALID,0,VALID,24.3842,VALID,33,VALID,0.892187,
2011-05-18, 00:48:05,VALID,1000.69,VALID,0,VALID,88.8011,VALID,0,VALID,24.2848,VALID,19,VALID,1.02813,
2011-05-18, 00:49:05,VALID,1000.68,VALID,0,VALID,89.2589,VALID,0,VALID,24.2476,VALID,9,VALID,1.06055,
2011-05-18, 00:50:05,VALID,1000.62,VALID,0,VALID,89.8159,VALID,0,VALID,24.2086,VALID,9,VALID,0.908203,
2011-05-18, 00:51:05,VALID,1000.6,VALID,0,VALID,90.2584,VALID,0,VALID,24.2086,VALID,357,VALID,0.851953,
2011-05-18, 00:52:05,VALID,1000.56,VALID,0,VALID,90.4949,VALID,0,VALID,24.1891,VALID,357,VALID,0.866797,
2011-05-18, 00:53:05,VALID,1000.57,VALID,0,VALID,90.5865,VALID,0,VALID,24.1891,VALID,356,VALID,0.810547,
2011-05-18, 00:54:05,VALID,1000.58,VALID,0,VALID,90.5712,VALID,0,VALID,24.15,VALID,356,VALID,0.502734,
2011-05-18, 00:55:05,VALID,1000.55,VALID,0,VALID,90.5636,VALID,0,VALID,24.111,VALID,356,VALID,0.525,
2011-05-18, 00:56:05,VALID,1000.52,VALID,0,VALID,90.6094,VALID,0,VALID,24.072,VALID,356,VALID,0.551172,
2011-05-18, 00:57:05,VALID,1000.52,VALID,0,VALID,90.6628,VALID,0,VALID,24.0116,VALID,356,VALID,0.595312,
2011-05-18, 00:58:05,VALID,1000.55,VALID,0,VALID,90.6857,VALID,0,VALID,23.9744,VALID,356,VALID,0.423047,
2011-05-18, 00:59:05,VALID,1000.52,VALID,0,VALID,90.7314,VALID,0,VALID,23.9159,VALID,356,VALID,0.341406,
2011-05-18, 01:00:05,VALID,1000.54,VALID,0,VALID,90.8535,VALID,0,VALID,23.8963,VALID,356,VALID,0.282031,
2011-05-18, 01:01:05,VALID,1000.57,VALID,0,VALID,91.0366,VALID,0,VALID,23.8963,VALID,356,VALID,0,
2011-05-18, 01:02:05,VALID,1000.56,VALID,0,VALID,91.1282,VALID,0,VALID,23.8768,VALID,356,VALID,0,
2011-05-18, 01:03:05,VALID,1000.53,VALID,0,VALID,91.2884,VALID,0,VALID,23.836,VALID,356,VALID,0,
2011-05-18, 01:04:05,VALID,1000.51,VALID,0,VALID,91.4181,VALID,0,VALID,23.8768,VALID,356,VALID,0,
2011-05-18, 01:05:05,VALID,1000.46,VALID,0,VALID,91.5783,VALID,0,VALID,23.8963,VALID,356,VALID,0,
2011-05-18, 01:06:05,VALID,1000.45,VALID,0,VALID,91.6928,VALID,0,VALID,23.8963,VALID,356,VALID,0.561719,
2011-05-18, 01:07:05,VALID,1000.41,VALID,0,VALID,91.6775,VALID,0,VALID,23.8573,VALID,356,VALID,0.734375,
2011-05-18, 01:08:05,VALID,1000.4,VALID,0,VALID,91.6165,VALID,0,VALID,23.8183,VALID,51,VALID,0.641406,
2011-05-18, 01:09:05,VALID,1000.4,VALID,0,VALID,91.5936,VALID,0,VALID,23.7988,VALID,79,VALID,0.569922,
2011-05-18, 01:10:05,VALID,1000.37,VALID,0,VALID,91.6851,VALID,0,VALID,23.7988,VALID,84,VALID,0.883203,
2011-05-18, 01:11:05,VALID,1000.33,VALID,0,VALID,91.7309,VALID,0,VALID,23.8183,VALID,93,VALID,1.00742,
2011-05-18, 01:12:05,VALID,1000.35,VALID,0,VALID,91.7767,VALID,0,VALID,23.836,VALID,94,VALID,0.971094,
2011-05-18, 01:13:05,VALID,1000.33,VALID,0,VALID,91.7996,VALID,0,VALID,23.875,VALID,94,VALID,0.757813,
2011-05-18, 01:14:05,VALID,1000.33,VALID,0,VALID,91.7614,VALID,0,VALID,23.8768,VALID,94,VALID,0.646094,
2011-05-18, 01:15:05,VALID,1000.31,VALID,0,VALID,91.7385,VALID,0,VALID,23.9177,VALID,94,VALID,0.644141,
2011-05-18, 01:16:05,VALID,1000.31,VALID,0,VALID,91.7462,VALID,0,VALID,23.9159,VALID,94,VALID,0.764063,
2011-05-18, 01:17:05,VALID,1000.28,VALID,0,VALID,91.7691,VALID,0,VALID,23.9159,VALID,94,VALID,0.753906,
2011-05-18, 01:18:05,VALID,1000.26,VALID,0,VALID,91.8072,VALID,0,VALID,23.9159,VALID,94,VALID,0.723047,
2011-05-18, 01:19:05,VALID,1000.31,VALID,0,VALID,91.8072,VALID,0,VALID,23.9159,VALID,94,VALID,0.754297,
2011-05-18, 01:20:05,VALID,1000.3,VALID,0,VALID,91.8301,VALID,0,VALID,23.8963,VALID,94,VALID,0.673437,
2011-05-18, 01:21:05,VALID,1000.29,VALID,0,VALID,91.8072,VALID,0,VALID,23.8963,VALID,94,VALID,0.84375,
2011-05-18, 01:22:05,VALID,1000.37,VALID,0,VALID,91.7767,VALID,0,VALID,23.8963,VALID,106,VALID,1.01758,
2011-05-18, 01:23:05,VALID,1000.36,VALID,0,VALID,91.6851,VALID,0,VALID,23.9159,VALID,112,VALID,1.05664,
2011-05-18, 01:24:05,VALID,1000.35,VALID,0,VALID,91.586,VALID,0,VALID,23.875,VALID,112,VALID,1.19062,
2011-05-18, 01:25:05,VALID,1000.35,VALID,0,VALID,91.4868,VALID,0,VALID,23.8963,VALID,114,VALID,1.07773,
2011-05-18, 01:26:05,VALID,1000.34,VALID,0,VALID,91.3723,VALID,0,VALID,23.8963,VALID,117,VALID,0.832422,
2011-05-18, 01:27:05,VALID,1000.34,VALID,0,VALID,91.2426,VALID,0,VALID,23.9159,VALID,117,VALID,0.605859,
2011-05-18, 01:28:05,VALID,1000.34,VALID,0,VALID,91.1434,VALID,0,VALID,23.9159,VALID,117,VALID,0.496484,
2011-05-18, 01:29:05,VALID,1000.31,VALID,0,VALID,91.0824,VALID,0,VALID,23.9159,VALID,117,VALID,0,
2011-05-18, 01:30:05,VALID,1000.26,VALID,0,VALID,91.0214,VALID,0,VALID,23.9354,VALID,117,VALID,0,
2011-05-18, 01:31:05,VALID,1000.3,VALID,0,VALID,90.9832,VALID,0,VALID,23.9354,VALID,117,VALID,0,
2011-05-18, 01:32:05,VALID,1000.28,VALID,0,VALID,91.0061,VALID,0,VALID,23.9159,VALID,117,VALID,0,
2011-05-18, 01:33:05,VALID,1000.23,VALID,0,VALID,91.029,VALID,0,VALID,23.9159,VALID,117,VALID,0,
2011-05-18, 01:34:05,VALID,1000.24,VALID,0,VALID,90.9985,VALID,0,VALID,23.9354,VALID,331,VALID,0.773828,
2011-05-18, 01:35:05,VALID,1000.21,VALID,0,VALID,91.0366,VALID,0,VALID,23.8945,VALID,331,VALID,0.903516,
2011-05-18, 01:36:05,VALID,1000.22,VALID,0,VALID,91.1358,VALID,0,VALID,23.8768,VALID,331,VALID,0.895312,
2011-05-18, 01:37:05,VALID,1000.21,VALID,0,VALID,91.235,VALID,0,VALID,23.8573,VALID,331,VALID,0.569141,
2011-05-18, 01:38:05,VALID,1000.19,VALID,0,VALID,91.2655,VALID,0,VALID,23.8165,VALID,331,VALID,0.597266,
2011-05-18, 01:39:05,VALID,1000.18,VALID,0,VALID,91.3571,VALID,0,VALID,23.797,VALID,331,VALID,0.633984,
2011-05-18, 01:40:05,VALID,1000.17,VALID,0,VALID,91.4715,VALID,0,VALID,23.7988,VALID,331,VALID,0.7125,
2011-05-18, 01:41:05,VALID,1000.2,VALID,0,VALID,91.5783,VALID,0,VALID,23.7793,VALID,331,VALID,0.702344,
2011-05-18, 01:42:05,VALID,1000.14,VALID,0,VALID,91.6546,VALID,0,VALID,23.7579,VALID,331,VALID,0.680859,
2011-05-18, 01:43:05,VALID,1000.18,VALID,0,VALID,91.7309,VALID,0,VALID,23.7384,VALID,331,VALID,0.698828,
2011-05-18, 01:44:05,VALID,1000.15,VALID,0,VALID,91.853,VALID,0,VALID,23.7597,VALID,331,VALID,0.600391,
2011-05-18, 01:45:05,VALID,1000.15,VALID,0,VALID,91.9674,VALID,0,VALID,23.7384,VALID,331,VALID,0.632813,
2011-05-18, 01:46:05,VALID,1000.17,VALID,0,VALID,92.0209,VALID,0,VALID,23.7384,VALID,329,VALID,0.596094,
2011-05-18, 01:47:05,VALID,1000.16,VALID,0,VALID,92.1048,VALID,0,VALID,23.7597,VALID,329,VALID,0.53125,
2011-05-18, 01:48:05,VALID,1000.19,VALID,0,VALID,92.1429,VALID,0,VALID,23.7597,VALID,329,VALID,0.308203,
2011-05-18, 01:49:05,VALID,1000.2,VALID,0,VALID,92.2116,VALID,0,VALID,23.7597,VALID,329,VALID,0.389453,
2011-05-18, 01:50:05,VALID,1000.22,VALID,0,VALID,92.2421,VALID,0,VALID,23.7597,VALID,329,VALID,0.0480469,
2011-05-18, 01:51:05,VALID,1000.19,VALID,0,VALID,92.2497,VALID,0,VALID,23.7597,VALID,329,VALID,0,
2011-05-18, 01:52:05,VALID,1000.19,VALID,0,VALID,92.2803,VALID,0,VALID,23.7402,VALID,329,VALID,0,
2011-05-18, 01:53:05,VALID,1000.2,VALID,0,VALID,92.2803,VALID,0,VALID,23.7402,VALID,329,VALID,0,
2011-05-18, 01:54:05,VALID,1000.17,VALID,0,VALID,92.2574,VALID,0,VALID,23.7012,VALID,329,VALID,0.591797,
2011-05-18, 01:55:05,VALID,1000.19,VALID,0,VALID,92.2803,VALID,0,VALID,23.7012,VALID,329,VALID,0.463672,
2011-05-18, 01:56:05,VALID,1000.21,VALID,0,VALID,92.2803,VALID,0,VALID,23.7012,VALID,329,VALID,0.06875,
2011-05-18, 01:57:05,VALID,1000.2,VALID,0,VALID,92.2879,VALID,0,VALID,23.6799,VALID,329,VALID,0.265625,
2011-05-18, 01:58:05,VALID,1000.23,VALID,0,VALID,92.2955,VALID,0,VALID,23.7207,VALID,330,VALID,0.365234,
2011-05-18, 01:59:05,VALID,1000.25,VALID,0,VALID,92.265,VALID,0,VALID,23.7402,VALID,329,VALID,0.441016,
2011-05-18, 02:00:05,VALID,1000.24,VALID,0,VALID,92.2268,VALID,0,VALID,23.7402,VALID,329,VALID,0.614062,
2011-05-18, 02:01:05,VALID,1000.29,VALID,0,VALID,92.1658,VALID,0,VALID,23.7597,VALID,51,VALID,0.660547,
2011-05-18, 02:02:05,VALID,1000.3,VALID,0,VALID,92.0666,VALID,0,VALID,23.7384,VALID,51,VALID,0.761719,
2011-05-18, 02:03:05,VALID,1000.29,VALID,0,VALID,91.9827,VALID,0,VALID,23.7793,VALID,66,VALID,0.723437,
2011-05-18, 02:04:05,VALID,1000.31,VALID,0,VALID,91.914,VALID,0,VALID,23.7793,VALID,67,VALID,0.744141,
2011-05-18, 02:05:05,VALID,1000.34,VALID,0,VALID,91.8988,VALID,0,VALID,23.7988,VALID,68,VALID,0.517969,
2011-05-18, 02:06:05,VALID,1000.36,VALID,0,VALID,91.853,VALID,0,VALID,23.7988,VALID,68,VALID,0.469922,
2011-05-18, 02:07:05,VALID,1000.36,VALID,0,VALID,91.8759,VALID,0,VALID,23.7793,VALID,68,VALID,0.396875,
2011-05-18, 02:08:05,VALID,1000.4,VALID,0,VALID,91.8606,VALID,0,VALID,23.7988,VALID,68,VALID,0,
2011-05-18, 02:09:05,VALID,1000.43,VALID,0,VALID,91.8835,VALID,0,VALID,23.7988,VALID,68,VALID,0,
2011-05-18, 02:10:05,VALID,1000.42,VALID,0,VALID,91.9217,VALID,0,VALID,23.7988,VALID,68,VALID,0,
2011-05-18, 02:11:05,VALID,1000.45,VALID,0,VALID,91.9598,VALID,0,VALID,23.8183,VALID,68,VALID,0,
2011-05-18, 02:12:05,VALID,1000.48,VALID,0,VALID,91.9522,VALID,0,VALID,23.8378,VALID,68,VALID,0,
2011-05-18, 02:13:05,VALID,1000.5,VALID,0,VALID,91.9293,VALID,0,VALID,23.8378,VALID,91,VALID,0,
2011-05-18, 02:14:05,VALID,1000.5,VALID,0,VALID,91.8988,VALID,0,VALID,23.8378,VALID,91,VALID,0,
2011-05-18, 02:15:05,VALID,1000.51,VALID,0,VALID,91.8454,VALID,0,VALID,23.8573,VALID,91,VALID,0.91875,
2011-05-18, 02:16:05,VALID,1000.52,VALID,0,VALID,91.7767,VALID,0,VALID,23.8768,VALID,91,VALID,0.871094,
2011-05-18, 02:17:05,VALID,1000.52,VALID,0,VALID,91.6851,VALID,0,VALID,23.9177,VALID,91,VALID,0.634766,
2011-05-18, 02:18:05,VALID,1000.52,VALID,0,VALID,91.6317,VALID,0,VALID,23.9159,VALID,91,VALID,0.758984,
2011-05-18, 02:19:04,VALID,1000.54,VALID,0,VALID,91.5554,VALID,0,VALID,23.9177,VALID,91,VALID,0.462891,
2011-05-18, 02:20:04,VALID,1000.52,VALID,0,VALID,91.502,VALID,0,VALID,23.8963,VALID,91,VALID,0.35625,
2011-05-18, 02:21:04,VALID,1000.53,VALID,0,VALID,91.4563,VALID,0,VALID,23.8963,VALID,91,VALID,0,
2011-05-18, 02:22:04,VALID,1000.57,VALID,0,VALID,91.4181,VALID,0,VALID,23.8982,VALID,91,VALID,0,
2011-05-18, 02:23:04,VALID,1000.57,VALID,0,VALID,91.3876,VALID,0,VALID,23.8768,VALID,91,VALID,0,
2011-05-18, 02:24:04,VALID,1000.59,VALID,0,VALID,91.3647,VALID,0,VALID,23.8768,VALID,91,VALID,0,
2011-05-18, 02:25:04,VALID,1000.6,VALID,0,VALID,91.3647,VALID,0,VALID,23.8963,VALID,91,VALID,0.0402344,
2011-05-18, 02:26:04,VALID,1000.58,VALID,0,VALID,91.3494,VALID,0,VALID,23.8963,VALID,91,VALID,0.380469,
2011-05-18, 02:27:04,VALID,1000.6,VALID,0,VALID,91.3113,VALID,0,VALID,23.9177,VALID,105,VALID,0.7375,
2011-05-18, 02:28:04,VALID,1000.59,VALID,0,VALID,91.2274,VALID,0,VALID,23.9177,VALID,107,VALID,0.815625,
2011-05-18, 02:29:04,VALID,1000.57,VALID,0,VALID,91.0137,VALID,0,VALID,23.8963,VALID,123,VALID,0.684766,
2011-05-18, 02:30:04,VALID,1000.57,VALID,0,VALID,90.7696,VALID,0,VALID,23.9159,VALID,123,VALID,0.0949219,
2011-05-18, 02:31:04,VALID,1000.56,VALID,0,VALID,90.5254,VALID,0,VALID,23.9354,VALID,143,VALID,0,
2011-05-18, 02:32:04,VALID,1000.56,VALID,0,VALID,90.1668,VALID,0,VALID,23.9354,VALID,151,VALID,0,
2011-05-18, 02:33:04,VALID,1000.55,VALID,0,VALID,89.7701,VALID,0,VALID,23.9744,VALID,151,VALID,0.808984,
2011-05-18, 02:34:04,VALID,1000.55,VALID,0,VALID,89.2055,VALID,0,VALID,24.0348,VALID,160,VALID,0.396094,
2011-05-18, 02:35:04,VALID,1000.55,VALID,0,VALID,88.7783,VALID,0,VALID,24.072,VALID,160,VALID,0.385156,
2011-05-18, 02:36:04,VALID,1000.55,VALID,0,VALID,88.4578,VALID,0,VALID,24.1324,VALID,166,VALID,0.551953,
2011-05-18, 02:37:04,VALID,1000.56,VALID,0,VALID,88.0611,VALID,0,VALID,24.111,VALID,166,VALID,0.970312,
2011-05-18, 02:38:04,VALID,1000.54,VALID,0,VALID,87.7635,VALID,0,VALID,24.15,VALID,149,VALID,1.02227,
2011-05-18, 02:39:04,VALID,1000.52,VALID,0,VALID,87.5804,VALID,0,VALID,24.1891,VALID,149,VALID,0.8625,
2011-05-18, 02:40:04,VALID,1000.54,VALID,0,VALID,87.382,VALID,0,VALID,24.2281,VALID,145,VALID,0.391797,
2011-05-18, 02:41:04,VALID,1000.52,VALID,0,VALID,87.3897,VALID,0,VALID,24.2476,VALID,145,VALID,0.530078,
2011-05-18, 02:42:04,VALID,1000.5,VALID,0,VALID,87.3515,VALID,0,VALID,24.2281,VALID,145,VALID,0.502734,
2011-05-18, 02:43:04,VALID,1000.48,VALID,0,VALID,87.1608,VALID,0,VALID,24.2476,VALID,145,VALID,0.535547,
2011-05-18, 02:44:04,VALID,1000.48,VALID,0,VALID,86.8785,VALID,0,VALID,24.2671,VALID,145,VALID,0.214844,
2011-05-18, 02:45:04,VALID,1000.48,VALID,0,VALID,86.8632,VALID,0,VALID,24.2671,VALID,145,VALID,0,
2011-05-18, 02:46:04,VALID,1000.48,VALID,0,VALID,86.9395,VALID,0,VALID,24.2866,VALID,145,VALID,0,
2011-05-18, 02:47:04,VALID,1000.46,VALID,0,VALID,86.9166,VALID,0,VALID,24.2866,VALID,145,VALID,0.128516,
2011-05-18, 02:48:04,VALID,1000.47,VALID,0,VALID,87.0692,VALID,0,VALID,24.2671,VALID,145,VALID,0,
2011-05-18, 02:49:04,VALID,1000.44,VALID,0,VALID,87.0997,VALID,0,VALID,24.2476,VALID,138,VALID,0.469922,
2011-05-18, 02:50:04,VALID,1000.44,VALID,0,VALID,87.1303,VALID,0,VALID,24.2653,VALID,105,VALID,0.176172,
2011-05-18, 02:51:04,VALID,1000.43,VALID,0,VALID,87.1226,VALID,0,VALID,24.2866,VALID,105,VALID,0,
2011-05-18, 02:52:04,VALID,1000.44,VALID,0,VALID,87.4889,VALID,0,VALID,24.2866,VALID,105,VALID,0,
2011-05-18, 02:53:04,VALID,1000.47,VALID,0,VALID,87.6033,VALID,0,VALID,24.2281,VALID,105,VALID,0,
2011-05-18, 02:54:04,VALID,1000.46,VALID,0,VALID,87.6949,VALID,0,VALID,24.2086,VALID,105,VALID,0,
2011-05-18, 02:55:04,VALID,1000.47,VALID,0,VALID,87.8551,VALID,0,VALID,24.2086,VALID,105,VALID,0,
2011-05-18, 02:56:04,VALID,1000.46,VALID,0,VALID,88.0229,VALID,0,VALID,24.1696,VALID,105,VALID,0,
2011-05-18, 02:57:04,VALID,1000.49,VALID,0,VALID,88.1221,VALID,0,VALID,24.15,VALID,105,VALID,0,
2011-05-18, 02:58:04,VALID,1000.48,VALID,0,VALID,88.206,VALID,0,VALID,24.1305,VALID,105,VALID,0,
2011-05-18, 02:59:04,VALID,1000.48,VALID,0,VALID,88.2289,VALID,0,VALID,24.1305,VALID,105,VALID,0,
2011-05-18, 03:00:04,VALID,1000.47,VALID,0,VALID,88.2137,VALID,0,VALID,24.1305,VALID,105,VALID,0,
2011-05-18, 03:01:04,VALID,1000.44,VALID,0,VALID,88.2213,VALID,0,VALID,24.1305,VALID,105,VALID,0,
2011-05-18, 03:02:04,VALID,1000.44,VALID,0,VALID,88.5799,VALID,0,VALID,24.1305,VALID,105,VALID,0,
2011-05-18, 03:03:04,VALID,1000.43,VALID,0,VALID,88.6867,VALID,0,VALID,24.15,VALID,105,VALID,0,
2011-05-18, 03:04:04,VALID,1000.37,VALID,0,VALID,88.8622,VALID,0,VALID,24.1305,VALID,105,VALID,0,
2011-05-18, 03:05:04,VALID,1000.4,VALID,0,VALID,89.0148,VALID,0,VALID,24.1305,VALID,105,VALID,0,
2011-05-18, 03:06:04,VALID,1000.39,VALID,0,VALID,89.1445,VALID,0,VALID,24.111,VALID,105,VALID,0,
2011-05-18, 03:07:04,VALID,1000.45,VALID,0,VALID,89.3734,VALID,0,VALID,24.111,VALID,105,VALID,0,
2011-05-18, 03:08:04,VALID,1000.43,VALID,0,VALID,89.6023,VALID,0,VALID,24.0915,VALID,105,VALID,0,
2011-05-18, 03:09:04,VALID,1000.42,VALID,0,VALID,89.8311,VALID,0,VALID,24.0329,VALID,86,VALID,0,
2011-05-18, 03:10:04,VALID,1000.44,VALID,0,VALID,89.9532,VALID,0,VALID,24.0134,VALID,86,VALID,0,
2011-05-18, 03:11:04,VALID,1000.43,VALID,0,VALID,90.0066,VALID,0,VALID,23.9939,VALID,86,VALID,0,
2011-05-18, 03:12:04,VALID,1000.41,VALID,0,VALID,90.0524,VALID,0,VALID,23.9744,VALID,86,VALID,0,
2011-05-18, 03:13:04,VALID,1000.4,VALID,0,VALID,90.0753,VALID,0,VALID,23.9744,VALID,86,VALID,0,
2011-05-18, 03:14:04,VALID,1000.37,VALID,0,VALID,90.0906,VALID,0,VALID,23.9744,VALID,86,VALID,0,
2011-05-18, 03:15:04,VALID,1000.37,VALID,0,VALID,90.0829,VALID,0,VALID,23.9726,VALID,317,VALID,0,
2011-05-18, 03:16:04,VALID,1000.37,VALID,0,VALID,89.9151,VALID,0,VALID,23.9921,VALID,317,VALID,0,
2011-05-18, 03:17:04,VALID,1000.33,VALID,0,VALID,89.8693,VALID,0,VALID,24.0116,VALID,317,VALID,0,
2011-05-18, 03:18:04,VALID,1000.33,VALID,0,VALID,89.8617,VALID,0,VALID,24.0116,VALID,317,VALID,0,
2011-05-18, 03:19:04,VALID,1000.37,VALID,0,VALID,89.8006,VALID,0,VALID,24.0506,VALID,317,VALID,0,
2011-05-18, 03:20:04,VALID,1000.36,VALID,0,VALID,89.8311,VALID,0,VALID,24.0525,VALID,317,VALID,0,
2011-05-18, 03:21:04,VALID,1000.34,VALID,0,VALID,89.7472,VALID,0,VALID,24.0506,VALID,317,VALID,0,
2011-05-18, 03:22:04,VALID,1000.33,VALID,0,VALID,89.6786,VALID,0,VALID,24.072,VALID,317,VALID,0,
2011-05-18, 03:23:04,VALID,1000.29,VALID,0,VALID,89.7854,VALID,0,VALID,24.0897,VALID,317,VALID,0,
2011-05-18, 03:24:04,VALID,1000.31,VALID,0,VALID,89.8693,VALID,0,VALID,24.0897,VALID,317,VALID,0,
2011-05-18, 03:25:04,VALID,1000.32,VALID,0,VALID,89.8235,VALID,0,VALID,24.0897,VALID,317,VALID,0,
2011-05-18, 03:26:04,VALID,1000.31,VALID,0,VALID,89.8311,VALID,0,VALID,24.111,VALID,317,VALID,0,
2011-05-18, 03:27:04,VALID,1000.33,VALID,0,VALID,89.8693,VALID,0,VALID,24.072,VALID,317,VALID,0,
2011-05-18, 03:28:04,VALID,1000.34,VALID,0,VALID,89.938,VALID,0,VALID,24.072,VALID,317,VALID,0,
2011-05-18, 03:29:04,VALID,1000.29,VALID,0,VALID,89.9914,VALID,0,VALID,24.0311,VALID,317,VALID,0,
2011-05-18, 03:30:04,VALID,1000.24,VALID,0,VALID,89.9837,VALID,0,VALID,24.0329,VALID,317,VALID,0,
2011-05-18, 03:31:04,VALID,1000.25,VALID,0,VALID,89.9303,VALID,0,VALID,24.0311,VALID,317,VALID,0,
2011-05-18, 03:32:04,VALID,1000.21,VALID,0,VALID,89.5641,VALID,0,VALID,24.0134,VALID,317,VALID,0,
2011-05-18, 03:33:04,VALID,1000.19,VALID,0,VALID,89.4726,VALID,0,VALID,24.0506,VALID,317,VALID,0,
2011-05-18, 03:34:04,VALID,1000.16,VALID,0,VALID,89.4191,VALID,0,VALID,24.0915,VALID,318,VALID,0,
2011-05-18, 03:35:04,VALID,1000.19,VALID,0,VALID,89.3047,VALID,0,VALID,24.111,VALID,2,VALID,0,
2011-05-18, 03:36:04,VALID,1000.18,VALID,0,VALID,89.2666,VALID,0,VALID,24.111,VALID,2,VALID,0.933984,
2011-05-18, 03:37:04,VALID,1000.18,VALID,0,VALID,89.2818,VALID,0,VALID,24.1305,VALID,4,VALID,1.26016,
2011-05-18, 03:38:04,VALID,1000.14,VALID,0,VALID,89.3276,VALID,0,VALID,24.15,VALID,10,VALID,1.10977,
2011-05-18, 03:39:04,VALID,1000.19,VALID,0,VALID,89.4649,VALID,0,VALID,24.15,VALID,8,VALID,1.07305,
2011-05-18, 03:40:04,VALID,1000.2,VALID,0,VALID,89.3734,VALID,0,VALID,24.111,VALID,14,VALID,1.10117,
2011-05-18, 03:41:04,VALID,1000.22,VALID,0,VALID,89.3276,VALID,0,VALID,24.0701,VALID,14,VALID,1.09063,
2011-05-18, 03:42:04,VALID,1000.26,VALID,0,VALID,89.381,VALID,0,VALID,24.0506,VALID,16,VALID,1.00547,
2011-05-18, 03:43:04,VALID,1000.26,VALID,0,VALID,89.5107,VALID,0,VALID,24.072,VALID,16,VALID,0.804688,
2011-05-18, 03:44:04,VALID,1000.27,VALID,0,VALID,89.6175,VALID,0,VALID,24.072,VALID,16,VALID,0.2625,
2011-05-18, 03:45:04,VALID,1000.27,VALID,0,VALID,89.6938,VALID,0,VALID,24.0311,VALID,16,VALID,0.217578,
2011-05-18, 03:46:04,VALID,1000.26,VALID,0,VALID,89.7396,VALID,0,VALID,24.0329,VALID,16,VALID,0.0617188,
2011-05-18, 03:47:04,VALID,1000.24,VALID,0,VALID,89.7167,VALID,0,VALID,24.0329,VALID,16,VALID,0,
2011-05-18, 03:48:04,VALID,1000.25,VALID,0,VALID,89.7243,VALID,0,VALID,24.0116,VALID,16,VALID,0,
2011-05-18, 03:49:04,VALID,1000.23,VALID,0,VALID,89.8235,VALID,0,VALID,24.0116,VALID,16,VALID,0,
2011-05-18, 03:50:04,VALID,1000.28,VALID,0,VALID,89.938,VALID,0,VALID,23.9939,VALID,16,VALID,0,